Weather History for Decatur, TX

Change the Weather History Date:

Tuesday, February 5, 2013

  Actual Average (KDTO) Record (KDTO)
Temperature  
Mean Temperature 54 °F -  
Max Temperature 59 °F 54 °F 73 °F (2006)
Min Temperature 50 °F 34 °F 14 °F (2011)
Degree Days  
Heating Degree Days 10    
Growing Degree Days 4 (Base 50)    
Moisture  
Dew Point 53 °F    
Average Humidity 98    
Maximum Humidity 100    
Minimum Humidity 88    
Precipitation  
Precipitation 0.00 in - - ()
Sea Level Pressure  
Sea Level Pressure 29.97 in    
Wind  
Wind Speed 4 mph (ENE)    
Max Wind Speed 10 mph    
Max Gust Speed -    
Visibility 3 miles    
Events Fog    
Averages and records for this station are not official NWS values.
T = Trace of Precipitation, MM = Missing Value Source: NWS Daily Summary

Daily Weather History Graph

Daily Weather History Graph

Search for Another Location

Airport:

Trip Planner

Search our weather history database for the weather conditions in past years. The results will help you decide how hot, cold, wet, or windy it might be!

Date:

Astronomy

Feb. 05, 2013 Rise Set
Actual Time 7:22 AM CST 6:06 PM CST
Civil Twilight 6:57 AM CST 6:32 PM CST
Nautical Twilight 6:27 AM CST 7:01 PM CST
Astronomical Twilight 5:58 AM CST 7:30 PM CST
Moon 3:00 AM CST (2/5) 1:30 PM CST (2/5)
Length of Visible Light 11h 35m
Length of Day
10h 43m
Waning Crescent, 26% of the Moon is Illuminated
Feb 5
Waning Crescent
Feb 10
New
Feb 17
First Quarter
Feb 25
Full
Mar 4
Last Quarter

Hourly Weather History & Observations

Time (CST) Temp. Dew Point Humidity Pressure Visibility Wind Dir Wind Speed Gust Speed Precip Events Conditions
12:15 AM 53.6 °F 51.8 °F 94% 29.90 in 10.0 mi East 4.6 mph - N/A   Clear
12:35 AM 53.6 °F 51.8 °F 94% 29.90 in 10.0 mi ENE 5.8 mph - N/A   Clear
12:55 AM 51.8 °F 51.8 °F 100% 29.90 in 7.0 mi NE 5.8 mph - N/A   Clear
1:15 AM 51.8 °F 51.8 °F 100% 29.90 in 7.0 mi ENE 4.6 mph - N/A   Clear
1:35 AM 51.8 °F 51.8 °F 100% 29.90 in 5.0 mi ENE 5.8 mph - N/A   Clear
1:55 AM 51.8 °F 51.8 °F 100% 29.90 in 4.0 mi East 4.6 mph - N/A   Scattered Clouds
2:15 AM 51.8 °F 51.8 °F 100% 29.89 in 4.0 mi East 4.6 mph - N/A   Mostly Cloudy
2:35 AM 51.8 °F 50.0 °F 94% 29.89 in 2.0 mi NE 4.6 mph - N/A   Overcast
2:55 AM 51.8 °F 51.8 °F 100% 29.89 in 2.5 mi NE 5.8 mph - N/A   Overcast
3:15 AM 51.8 °F 51.8 °F 100% 29.89 in 3.0 mi Calm Calm - N/A   Overcast
3:35 AM 51.8 °F 51.8 °F 100% 29.89 in 3.0 mi Calm Calm - N/A   Overcast
3:55 AM 51.8 °F 51.8 °F 100% 29.90 in 2.5 mi Calm Calm - N/A   Overcast
4:15 AM 53.6 °F 53.6 °F 100% 29.90 in 0.5 mi ESE 3.5 mph - N/A Fog Fog
4:35 AM 53.6 °F 53.6 °F 100% 29.90 in 0.2 mi East 3.5 mph - N/A Fog Fog
4:55 AM 51.8 °F 51.8 °F 100% 29.90 in 0.2 mi Calm Calm - N/A Fog Fog
5:15 AM 51.8 °F 51.8 °F 100% 29.90 in 0.2 mi Calm Calm - N/A Fog Fog
5:35 AM 50.0 °F 50.0 °F 100% 29.90 in 0.2 mi Calm Calm - N/A Fog Fog
5:55 AM 50.0 °F 50.0 °F 100% 29.91 in 0.2 mi Calm Calm - N/A Fog Fog
6:15 AM 50.0 °F 50.0 °F 100% 29.92 in 0.2 mi Calm Calm - N/A Fog Fog
6:35 AM 50.0 °F 50.0 °F 100% 29.93 in 0.2 mi Calm Calm - N/A Fog Fog
6:55 AM 50.0 °F 50.0 °F 100% 29.93 in 0.2 mi NE 3.5 mph - N/A Fog Fog
7:15 AM 50.0 °F 50.0 °F 100% 29.94 in 0.2 mi Calm Calm - N/A Fog Fog
7:35 AM 50.0 °F 50.0 °F 100% 29.95 in 0.2 mi Calm Calm - N/A Fog Fog
7:55 AM 50.0 °F 50.0 °F 100% 29.97 in 0.2 mi Calm Calm - N/A Fog Fog
8:15 AM 50.0 °F 50.0 °F 100% 29.98 in 0.2 mi NE 4.6 mph - N/A Fog Fog
8:55 AM 50.0 °F 50.0 °F 100% 29.99 in 0.5 mi NE 3.5 mph - N/A Fog Fog
9:15 AM 50.0 °F 50.0 °F 100% 29.99 in 0.5 mi ENE 3.5 mph - N/A Fog Fog
9:35 AM 50.0 °F 50.0 °F 100% 29.99 in 0.5 mi Calm Calm - N/A Fog Fog
10:15 AM 50.0 °F 50.0 °F 100% 30.01 in 0.5 mi ENE 4.6 mph - N/A Fog Fog
10:35 AM 50.0 °F 50.0 °F 100% 30.01 in 0.8 mi East 4.6 mph - N/A   Overcast
10:55 AM 50.0 °F 50.0 °F 100% 30.02 in 0.8 mi ENE 4.6 mph - N/A   Overcast
11:15 AM 51.8 °F 51.8 °F 100% 30.02 in 1.0 mi NE 4.6 mph - N/A   Overcast
11:35 AM 51.8 °F 51.8 °F 100% 30.02 in 1.5 mi NE 3.5 mph - N/A   Overcast
11:55 AM 51.8 °F 51.8 °F 100% 30.02 in 2.0 mi NE 5.8 mph - N/A   Overcast
12:15 PM 51.8 °F 51.8 °F 100% 30.02 in 2.5 mi NE 4.6 mph - N/A   Overcast
12:35 PM 53.6 °F 53.6 °F 100% 30.01 in 3.0 mi NE 5.8 mph - N/A   Overcast
12:55 PM 53.6 °F 53.6 °F 100% 30.00 in 4.0 mi NNE 4.6 mph - N/A   Overcast
1:15 PM 55.4 °F 55.4 °F 100% 29.99 in 5.0 mi NNE 3.5 mph - N/A   Overcast
1:35 PM 55.4 °F 55.4 °F 100% 29.98 in 7.0 mi NNE 3.5 mph - N/A   Overcast
1:55 PM 55.4 °F 55.4 °F 100% 29.98 in 7.0 mi Calm Calm - N/A   Overcast
2:15 PM 57.2 °F 57.2 °F 100% 29.97 in 7.0 mi Calm Calm - N/A   Overcast
2:35 PM 59.0 °F 55.4 °F 88% 29.97 in 7.0 mi Calm Calm - N/A   Overcast
2:55 PM 59.0 °F 55.4 °F 88% 29.97 in 7.0 mi NE 3.5 mph - N/A   Overcast
3:15 PM 59.0 °F 55.4 °F 88% 29.97 in 10.0 mi NNE 4.6 mph - N/A   Overcast
3:35 PM 59.0 °F 55.4 °F 88% 29.96 in 10.0 mi NNE 4.6 mph - N/A   Overcast
3:55 PM 59.0 °F 55.4 °F 88% 29.97 in 10.0 mi ENE 6.9 mph - N/A   Overcast
4:15 PM 59.0 °F 55.4 °F 88% 29.97 in 10.0 mi ENE 5.8 mph - N/A   Overcast
4:35 PM 59.0 °F 55.4 °F 88% 29.97 in 7.0 mi ENE 5.8 mph - N/A   Overcast
4:55 PM 59.0 °F 55.4 °F 88% 29.97 in 7.0 mi East 6.9 mph - N/A   Overcast
5:15 PM 57.2 °F 55.4 °F 94% 29.97 in 7.0 mi East 4.6 mph - N/A   Overcast
5:35 PM 57.2 °F 55.4 °F 94% 29.97 in 5.0 mi ENE 6.9 mph - N/A   Overcast
5:55 PM 57.2 °F 55.4 °F 94% 29.97 in 5.0 mi ENE 5.8 mph - N/A   Overcast
6:35 PM 55.4 °F 55.4 °F 100% 29.98 in 7.0 mi ENE 5.8 mph - N/A   Overcast
6:55 PM 55.4 °F 55.4 °F 100% 29.99 in 5.0 mi ENE 8.1 mph - N/A   Overcast
7:15 PM 55.4 °F 55.4 °F 100% 29.99 in 5.0 mi ENE 5.8 mph - N/A   Overcast
7:35 PM 55.4 °F 55.4 °F 100% 30.00 in 5.0 mi ENE 5.8 mph - N/A   Overcast
7:55 PM 55.4 °F 55.4 °F 100% 30.00 in 4.0 mi ENE 5.8 mph - N/A   Overcast
8:15 PM 55.4 °F 55.4 °F 100% 30.00 in 2.0 mi ENE 9.2 mph - N/A   Overcast
8:35 PM 55.4 °F 53.6 °F 94% 30.01 in 1.0 mi ENE 10.4 mph - N/A   Overcast
8:55 PM 55.4 °F 53.6 °F 94% 30.01 in 0.8 mi East 10.4 mph - N/A   Overcast
9:15 PM 53.6 °F 53.6 °F 100% 30.01 in 0.5 mi East 9.2 mph - N/A Fog Fog
9:35 PM 53.6 °F 53.6 °F 100% 30.02 in 0.5 mi East 9.2 mph - N/A Fog Fog
9:55 PM 53.6 °F 53.6 °F 100% 30.02 in 0.5 mi East 6.9 mph - N/A Fog Fog
10:15 PM 53.6 °F 53.6 °F 100% 30.02 in 0.5 mi East 6.9 mph - N/A Fog Fog
10:35 PM 53.6 °F 53.6 °F 100% 30.02 in 0.8 mi ESE 6.9 mph - N/A   Overcast
10:55 PM 53.6 °F 53.6 °F 100% 30.02 in 0.8 mi ESE 5.8 mph - N/A   Overcast
11:15 PM 53.6 °F 53.6 °F 100% 30.03 in 0.5 mi ESE 5.8 mph - N/A Fog Fog
11:35 PM 53.6 °F 53.6 °F 100% 30.03 in 0.5 mi East 5.8 mph - N/A Fog Fog
11:55 PM 53.6 °F 53.6 °F 100% 30.04 in 0.5 mi ESE 5.8 mph - N/A Fog Fog